<?xml version="1.0" encoding="UTF-8" standalone="no" ?>
<gpx xmlns="http://www.topografix.com/GPX/1/1" xmlns:xsi="http://www.w3.org/2001/XMLSchema-instance" xsi:schemaLocation="http://www.topografix.com/GPX/1/1 http://www.topografix.com/GPX/1/1/gpx.xsd" version="1.1" creator="VisuGPX - https://www.visugpx.com">
  <metadata>
    <name>barreges -col du tourmalet</name>
    <desc><![CDATA[12 km]]></desc>
  </metadata>
  <trk>
    <name><![CDATA[barreges -col du tourmalet_1]]></name>
    <extensions>
      <line xmlns="http://www.topografix.com/GPX/gpx_style/0/2">
        <color>0000FF</color>
        <width>4</width>
      </line>
    </extensions>
    <trkseg>
      <trkpt lat="42.89617" lon="0.06286">
        <ele>1212.4</ele>
        <time>2024-07-30T22:00:00.000Z</time>
      </trkpt>
      <trkpt lat="42.89624" lon="0.0633">
        <ele>1214.9</ele>
        <time>2024-07-30T22:00:17.381Z</time>
      </trkpt>
      <trkpt lat="42.89629" lon="0.0635">
        <ele>1215.3</ele>
        <time>2024-07-30T22:00:24.305Z</time>
      </trkpt>
      <trkpt lat="42.89757" lon="0.06703">
        <ele>1232.7</ele>
        <time>2024-07-30T22:02:48.654Z</time>
      </trkpt>
      <trkpt lat="42.89766" lon="0.06732">
        <ele>1234.1</ele>
        <time>2024-07-30T22:03:00.211Z</time>
      </trkpt>
      <trkpt lat="42.89773" lon="0.06764">
        <ele>1235.8</ele>
        <time>2024-07-30T22:03:12.831Z</time>
      </trkpt>
      <trkpt lat="42.89763" lon="0.06768">
        <ele>1237.9</ele>
        <time>2024-07-30T22:03:21.525Z</time>
      </trkpt>
      <trkpt lat="42.8976" lon="0.06767">
        <ele>1238.3</ele>
        <time>2024-07-30T22:03:23.489Z</time>
      </trkpt>
      <trkpt lat="42.89745" lon="0.06747">
        <ele>1239.1</ele>
        <time>2024-07-30T22:03:33.245Z</time>
      </trkpt>
      <trkpt lat="42.89737" lon="0.06742">
        <ele>1242.3</ele>
        <time>2024-07-30T22:03:47.515Z</time>
      </trkpt>
      <trkpt lat="42.89733" lon="0.06742">
        <ele>1244.2</ele>
        <time>2024-07-30T22:03:56.178Z</time>
      </trkpt>
      <trkpt lat="42.89732" lon="0.06752">
        <ele>1246.5</ele>
        <time>2024-07-30T22:04:05.831Z</time>
      </trkpt>
      <trkpt lat="42.89734" lon="0.06767">
        <ele>1248.5</ele>
        <time>2024-07-30T22:04:14.373Z</time>
      </trkpt>
      <trkpt lat="42.89753" lon="0.06819">
        <ele>1250.2</ele>
        <time>2024-07-30T22:04:34.294Z</time>
      </trkpt>
      <trkpt lat="42.89761" lon="0.06852">
        <ele>1253.8</ele>
        <time>2024-07-30T22:04:51.202Z</time>
      </trkpt>
      <trkpt lat="42.89797" lon="0.0706">
        <ele>1276.4</ele>
        <time>2024-07-30T22:06:36.303Z</time>
      </trkpt>
      <trkpt lat="42.89804" lon="0.07143">
        <ele>1291.4</ele>
        <time>2024-07-30T22:07:37.091Z</time>
      </trkpt>
      <trkpt lat="42.89814" lon="0.07232">
        <ele>1306.2</ele>
        <time>2024-07-30T22:08:37.343Z</time>
      </trkpt>
      <trkpt lat="42.89811" lon="0.07272">
        <ele>1310.4</ele>
        <time>2024-07-30T22:08:56.988Z</time>
      </trkpt>
      <trkpt lat="42.89809" lon="0.0738">
        <ele>1320.1</ele>
        <time>2024-07-30T22:09:46.072Z</time>
      </trkpt>
      <trkpt lat="42.89806" lon="0.07401">
        <ele>1323.6</ele>
        <time>2024-07-30T22:10:00.328Z</time>
      </trkpt>
      <trkpt lat="42.89809" lon="0.07416">
        <ele>1322.7</ele>
        <time>2024-07-30T22:10:04.440Z</time>
      </trkpt>
      <trkpt lat="42.89804" lon="0.07482">
        <ele>1330.6</ele>
        <time>2024-07-30T22:10:39.352Z</time>
      </trkpt>
      <trkpt lat="42.89801" lon="0.07577">
        <ele>1339.2</ele>
        <time>2024-07-30T22:11:22.694Z</time>
      </trkpt>
      <trkpt lat="42.89801" lon="0.07668">
        <ele>1348.3</ele>
        <time>2024-07-30T22:12:06.176Z</time>
      </trkpt>
      <trkpt lat="42.89803" lon="0.07719">
        <ele>1354.7</ele>
        <time>2024-07-30T22:12:33.929Z</time>
      </trkpt>
      <trkpt lat="42.89802" lon="0.07747">
        <ele>1359.2</ele>
        <time>2024-07-30T22:12:52.299Z</time>
      </trkpt>
      <trkpt lat="42.89805" lon="0.07764">
        <ele>1359.8</ele>
        <time>2024-07-30T22:12:58.429Z</time>
      </trkpt>
      <trkpt lat="42.89797" lon="0.07794">
        <ele>1367.3</ele>
        <time>2024-07-30T22:13:30.213Z</time>
      </trkpt>
      <trkpt lat="42.89773" lon="0.07862">
        <ele>1382.5</ele>
        <time>2024-07-30T22:14:32.297Z</time>
      </trkpt>
      <trkpt lat="42.89774" lon="0.07881">
        <ele>1385.4</ele>
        <time>2024-07-30T22:14:44.231Z</time>
      </trkpt>
      <trkpt lat="42.89788" lon="0.07888">
        <ele>1384</ele>
        <time>2024-07-30T22:14:49.614Z</time>
      </trkpt>
      <trkpt lat="42.89826" lon="0.07898">
        <ele>1379.2</ele>
        <time>2024-07-30T22:15:03.583Z</time>
      </trkpt>
      <trkpt lat="42.89844" lon="0.07905">
        <ele>1376.3</ele>
        <time>2024-07-30T22:15:10.339Z</time>
      </trkpt>
      <trkpt lat="42.89886" lon="0.07928">
        <ele>1370.5</ele>
        <time>2024-07-30T22:15:26.675Z</time>
      </trkpt>
      <trkpt lat="42.89925" lon="0.07944">
        <ele>1367.1</ele>
        <time>2024-07-30T22:15:41.375Z</time>
      </trkpt>
      <trkpt lat="42.89964" lon="0.07965">
        <ele>1362.2</ele>
        <time>2024-07-30T22:15:56.509Z</time>
      </trkpt>
      <trkpt lat="42.89981" lon="0.0798">
        <ele>1358.7</ele>
        <time>2024-07-30T22:16:03.816Z</time>
      </trkpt>
      <trkpt lat="42.90006" lon="0.0802">
        <ele>1356.9</ele>
        <time>2024-07-30T22:16:17.720Z</time>
      </trkpt>
      <trkpt lat="42.90015" lon="0.0804">
        <ele>1357.4</ele>
        <time>2024-07-30T22:16:25.490Z</time>
      </trkpt>
      <trkpt lat="42.90037" lon="0.08113">
        <ele>1367.2</ele>
        <time>2024-07-30T22:17:08.127Z</time>
      </trkpt>
      <trkpt lat="42.90044" lon="0.08171">
        <ele>1376.4</ele>
        <time>2024-07-30T22:17:45.814Z</time>
      </trkpt>
      <trkpt lat="42.90066" lon="0.0824">
        <ele>1378.8</ele>
        <time>2024-07-30T22:18:11.914Z</time>
      </trkpt>
      <trkpt lat="42.90088" lon="0.0832">
        <ele>1386.6</ele>
        <time>2024-07-30T22:18:51.022Z</time>
      </trkpt>
      <trkpt lat="42.901" lon="0.08356">
        <ele>1388.3</ele>
        <time>2024-07-30T22:19:05.438Z</time>
      </trkpt>
      <trkpt lat="42.90111" lon="0.0838">
        <ele>1386.5</ele>
        <time>2024-07-30T22:19:12.924Z</time>
      </trkpt>
      <trkpt lat="42.90114" lon="0.08391">
        <ele>1386.7</ele>
        <time>2024-07-30T22:19:16.739Z</time>
      </trkpt>
      <trkpt lat="42.90129" lon="0.08466">
        <ele>1390.3</ele>
        <time>2024-07-30T22:19:45.506Z</time>
      </trkpt>
      <trkpt lat="42.90145" lon="0.08522">
        <ele>1389.3</ele>
        <time>2024-07-30T22:20:02.461Z</time>
      </trkpt>
      <trkpt lat="42.90152" lon="0.08555">
        <ele>1388.9</ele>
        <time>2024-07-30T22:20:12.352Z</time>
      </trkpt>
      <trkpt lat="42.90158" lon="0.08596">
        <ele>1391.9</ele>
        <time>2024-07-30T22:20:29.766Z</time>
      </trkpt>
      <trkpt lat="42.90175" lon="0.08675">
        <ele>1403.1</ele>
        <time>2024-07-30T22:21:17.083Z</time>
      </trkpt>
      <trkpt lat="42.90187" lon="0.08722">
        <ele>1407.4</ele>
        <time>2024-07-30T22:21:39.324Z</time>
      </trkpt>
      <trkpt lat="42.90206" lon="0.0877">
        <ele>1399.6</ele>
        <time>2024-07-30T22:21:53.751Z</time>
      </trkpt>
      <trkpt lat="42.90231" lon="0.08845">
        <ele>1391.4</ele>
        <time>2024-07-30T22:22:15.540Z</time>
      </trkpt>
      <trkpt lat="42.90236" lon="0.08852">
        <ele>1389.9</ele>
        <time>2024-07-30T22:22:18.125Z</time>
      </trkpt>
      <trkpt lat="42.90272" lon="0.08996">
        <ele>1390.9</ele>
        <time>2024-07-30T22:23:05.400Z</time>
      </trkpt>
      <trkpt lat="42.90275" lon="0.09021">
        <ele>1391.7</ele>
        <time>2024-07-30T22:23:14.174Z</time>
      </trkpt>
      <trkpt lat="42.90268" lon="0.09099">
        <ele>1401.5</ele>
        <time>2024-07-30T22:23:56.742Z</time>
      </trkpt>
      <trkpt lat="42.90268" lon="0.09122">
        <ele>1403.5</ele>
        <time>2024-07-30T22:24:07.048Z</time>
      </trkpt>
      <trkpt lat="42.90271" lon="0.09146">
        <ele>1404.3</ele>
        <time>2024-07-30T22:24:15.528Z</time>
        <extensions>
          <visugpx:TrkExtension xmlns:visugpx="https://www.visugpx.com/editgpx/">
            <visugpx:node>1</visugpx:node>
            </visugpx:TrkExtension>
        </extensions>
      </trkpt>
      <trkpt lat="42.903" lon="0.09274">
        <ele>1409.9</ele>
        <time>2024-07-30T22:25:04.102Z</time>
      </trkpt>
      <trkpt lat="42.90322" lon="0.09385">
        <ele>1415.1</ele>
        <time>2024-07-30T22:25:46.441Z</time>
      </trkpt>
      <trkpt lat="42.90333" lon="0.09477">
        <ele>1415.3</ele>
        <time>2024-07-30T22:26:14.866Z</time>
      </trkpt>
      <trkpt lat="42.90338" lon="0.09715">
        <ele>1426.6</ele>
        <time>2024-07-30T22:27:43.430Z</time>
      </trkpt>
      <trkpt lat="42.90357" lon="0.09918">
        <ele>1437</ele>
        <time>2024-07-30T22:29:00.729Z</time>
      </trkpt>
      <trkpt lat="42.90361" lon="0.09978">
        <ele>1439.7</ele>
        <time>2024-07-30T22:29:22.871Z</time>
      </trkpt>
      <trkpt lat="42.9036" lon="0.10006">
        <ele>1442.7</ele>
        <time>2024-07-30T22:29:36.745Z</time>
      </trkpt>
      <trkpt lat="42.90355" lon="0.10023">
        <ele>1444.8</ele>
        <time>2024-07-30T22:29:46.168Z</time>
      </trkpt>
      <trkpt lat="42.90351" lon="0.10031">
        <ele>1445.8</ele>
        <time>2024-07-30T22:29:50.871Z</time>
      </trkpt>
      <trkpt lat="42.90329" lon="0.10061">
        <ele>1448.3</ele>
        <time>2024-07-30T22:30:07.514Z</time>
      </trkpt>
      <trkpt lat="42.90322" lon="0.10081">
        <ele>1449.7</ele>
        <time>2024-07-30T22:30:16.379Z</time>
      </trkpt>
      <trkpt lat="42.90346" lon="0.10255">
        <ele>1454.9</ele>
        <time>2024-07-30T22:31:17.103Z</time>
      </trkpt>
      <trkpt lat="42.90358" lon="0.10298">
        <ele>1456.9</ele>
        <time>2024-07-30T22:31:33.911Z</time>
      </trkpt>
      <trkpt lat="42.90376" lon="0.10337">
        <ele>1460.3</ele>
        <time>2024-07-30T22:31:53.293Z</time>
      </trkpt>
      <trkpt lat="42.90395" lon="0.10358">
        <ele>1462.9</ele>
        <time>2024-07-30T22:32:07.607Z</time>
      </trkpt>
      <trkpt lat="42.90408" lon="0.10366">
        <ele>1464.4</ele>
        <time>2024-07-30T22:32:15.922Z</time>
      </trkpt>
      <trkpt lat="42.90426" lon="0.10365">
        <ele>1464.8</ele>
        <time>2024-07-30T22:32:23.887Z</time>
      </trkpt>
      <trkpt lat="42.90442" lon="0.10357">
        <ele>1464.6</ele>
        <time>2024-07-30T22:32:30.669Z</time>
      </trkpt>
      <trkpt lat="42.90448" lon="0.10352">
        <ele>1465.2</ele>
        <time>2024-07-30T22:32:34.495Z</time>
      </trkpt>
      <trkpt lat="42.90501" lon="0.10289">
        <ele>1472.1</ele>
        <time>2024-07-30T22:33:14.483Z</time>
      </trkpt>
      <trkpt lat="42.90516" lon="0.10269">
        <ele>1474.7</ele>
        <time>2024-07-30T22:33:27.554Z</time>
      </trkpt>
      <trkpt lat="42.90524" lon="0.10252">
        <ele>1476.1</ele>
        <time>2024-07-30T22:33:35.872Z</time>
      </trkpt>
      <trkpt lat="42.90529" lon="0.10229">
        <ele>1476.6</ele>
        <time>2024-07-30T22:33:43.797Z</time>
      </trkpt>
      <trkpt lat="42.90529" lon="0.10177">
        <ele>1477.9</ele>
        <time>2024-07-30T22:34:01.291Z</time>
      </trkpt>
      <trkpt lat="42.90534" lon="0.10165">
        <ele>1479.1</ele>
        <time>2024-07-30T22:34:07.476Z</time>
      </trkpt>
      <trkpt lat="42.90538" lon="0.1016">
        <ele>1479.8</ele>
        <time>2024-07-30T22:34:10.919Z</time>
      </trkpt>
      <trkpt lat="42.90542" lon="0.10158">
        <ele>1480.6</ele>
        <time>2024-07-30T22:34:14.288Z</time>
      </trkpt>
      <trkpt lat="42.90548" lon="0.10158">
        <ele>1481.8</ele>
        <time>2024-07-30T22:34:19.265Z</time>
      </trkpt>
      <trkpt lat="42.90552" lon="0.10161">
        <ele>1482.5</ele>
        <time>2024-07-30T22:34:22.432Z</time>
      </trkpt>
      <trkpt lat="42.90562" lon="0.10183">
        <ele>1485.9</ele>
        <time>2024-07-30T22:34:36.948Z</time>
      </trkpt>
      <trkpt lat="42.90566" lon="0.10203">
        <ele>1487.7</ele>
        <time>2024-07-30T22:34:46.232Z</time>
      </trkpt>
      <trkpt lat="42.90568" lon="0.10219">
        <ele>1488.9</ele>
        <time>2024-07-30T22:34:53.062Z</time>
      </trkpt>
      <trkpt lat="42.90568" lon="0.10259">
        <ele>1490.7</ele>
        <time>2024-07-30T22:35:07.774Z</time>
      </trkpt>
      <trkpt lat="42.90562" lon="0.10335">
        <ele>1494.7</ele>
        <time>2024-07-30T22:35:36.847Z</time>
      </trkpt>
      <trkpt lat="42.90557" lon="0.10372">
        <ele>1496.7</ele>
        <time>2024-07-30T22:35:51.211Z</time>
      </trkpt>
      <trkpt lat="42.9055" lon="0.10397">
        <ele>1497.6</ele>
        <time>2024-07-30T22:36:00.565Z</time>
      </trkpt>
      <trkpt lat="42.90526" lon="0.10435">
        <ele>1495.5</ele>
        <time>2024-07-30T22:36:13.832Z</time>
      </trkpt>
      <trkpt lat="42.90522" lon="0.10448">
        <ele>1495.5</ele>
        <time>2024-07-30T22:36:18.093Z</time>
      </trkpt>
      <trkpt lat="42.90523" lon="0.10454">
        <ele>1496.1</ele>
        <time>2024-07-30T22:36:20.997Z</time>
      </trkpt>
      <trkpt lat="42.90526" lon="0.10459">
        <ele>1497.4</ele>
        <time>2024-07-30T22:36:26.306Z</time>
      </trkpt>
      <trkpt lat="42.90529" lon="0.10463">
        <ele>1498.7</ele>
        <time>2024-07-30T22:36:31.756Z</time>
      </trkpt>
      <trkpt lat="42.90534" lon="0.10464">
        <ele>1500.1</ele>
        <time>2024-07-30T22:36:37.481Z</time>
      </trkpt>
      <trkpt lat="42.90539" lon="0.10463">
        <ele>1501.3</ele>
        <time>2024-07-30T22:36:42.347Z</time>
      </trkpt>
      <trkpt lat="42.9055" lon="0.10457">
        <ele>1503.4</ele>
        <time>2024-07-30T22:36:51.345Z</time>
      </trkpt>
      <trkpt lat="42.90555" lon="0.10451">
        <ele>1503.8</ele>
        <time>2024-07-30T22:36:54.673Z</time>
      </trkpt>
      <trkpt lat="42.90586" lon="0.10393">
        <ele>1509.8</ele>
        <time>2024-07-30T22:37:26.318Z</time>
      </trkpt>
      <trkpt lat="42.90599" lon="0.10362">
        <ele>1512.3</ele>
        <time>2024-07-30T22:37:41.071Z</time>
      </trkpt>
      <trkpt lat="42.90612" lon="0.10318">
        <ele>1513.8</ele>
        <time>2024-07-30T22:37:57.504Z</time>
      </trkpt>
      <trkpt lat="42.90633" lon="0.10267">
        <ele>1517.3</ele>
        <time>2024-07-30T22:38:20.541Z</time>
      </trkpt>
      <trkpt lat="42.90637" lon="0.10248">
        <ele>1517.1</ele>
        <time>2024-07-30T22:38:26.268Z</time>
      </trkpt>
      <trkpt lat="42.90637" lon="0.1021">
        <ele>1516.2</ele>
        <time>2024-07-30T22:38:36.683Z</time>
      </trkpt>
      <trkpt lat="42.9064" lon="0.10193">
        <ele>1517.3</ele>
        <time>2024-07-30T22:38:43.668Z</time>
      </trkpt>
      <trkpt lat="42.90643" lon="0.1019">
        <ele>1518.2</ele>
        <time>2024-07-30T22:38:47.316Z</time>
      </trkpt>
      <trkpt lat="42.90651" lon="0.10188">
        <ele>1520.8</ele>
        <time>2024-07-30T22:38:58.323Z</time>
      </trkpt>
      <trkpt lat="42.90655" lon="0.1019">
        <ele>1522.2</ele>
        <time>2024-07-30T22:39:04.307Z</time>
      </trkpt>
      <trkpt lat="42.90659" lon="0.10195">
        <ele>1523.5</ele>
        <time>2024-07-30T22:39:09.577Z</time>
      </trkpt>
      <trkpt lat="42.90661" lon="0.10202">
        <ele>1524.6</ele>
        <time>2024-07-30T22:39:14.139Z</time>
      </trkpt>
      <trkpt lat="42.90661" lon="0.1021">
        <ele>1525.1</ele>
        <time>2024-07-30T22:39:17.328Z</time>
      </trkpt>
      <trkpt lat="42.90652" lon="0.10275">
        <ele>1527.7</ele>
        <time>2024-07-30T22:39:41.042Z</time>
      </trkpt>
      <trkpt lat="42.90631" lon="0.10471">
        <ele>1539.2</ele>
        <time>2024-07-30T22:40:58.398Z</time>
      </trkpt>
      <trkpt lat="42.90631" lon="0.10549">
        <ele>1543</ele>
        <time>2024-07-30T22:41:27.577Z</time>
      </trkpt>
      <trkpt lat="42.90619" lon="0.10584">
        <ele>1544.8</ele>
        <time>2024-07-30T22:41:41.894Z</time>
      </trkpt>
      <trkpt lat="42.90617" lon="0.106">
        <ele>1545.2</ele>
        <time>2024-07-30T22:41:47.346Z</time>
      </trkpt>
      <trkpt lat="42.90637" lon="0.10714">
        <ele>1555.8</ele>
        <time>2024-07-30T22:42:40.768Z</time>
      </trkpt>
      <trkpt lat="42.90637" lon="0.1076">
        <ele>1559.3</ele>
        <time>2024-07-30T22:43:00.325Z</time>
      </trkpt>
      <trkpt lat="42.9064" lon="0.1084">
        <ele>1563.3</ele>
        <time>2024-07-30T22:43:30.459Z</time>
      </trkpt>
      <trkpt lat="42.90652" lon="0.10931">
        <ele>1570</ele>
        <time>2024-07-30T22:44:09.096Z</time>
      </trkpt>
      <trkpt lat="42.90664" lon="0.10985">
        <ele>1574.6</ele>
        <time>2024-07-30T22:44:33.722Z</time>
      </trkpt>
      <trkpt lat="42.9069" lon="0.11069">
        <ele>1581.2</ele>
        <time>2024-07-30T22:45:11.812Z</time>
      </trkpt>
      <trkpt lat="42.90723" lon="0.11202">
        <ele>1590.4</ele>
        <time>2024-07-30T22:46:08.594Z</time>
      </trkpt>
      <trkpt lat="42.90725" lon="0.11231">
        <ele>1591.5</ele>
        <time>2024-07-30T22:46:18.964Z</time>
      </trkpt>
      <trkpt lat="42.90727" lon="0.11336">
        <ele>1598.5</ele>
        <time>2024-07-30T22:47:01.663Z</time>
      </trkpt>
      <trkpt lat="42.90737" lon="0.11434">
        <ele>1604</ele>
        <time>2024-07-30T22:47:39.863Z</time>
      </trkpt>
      <trkpt lat="42.90739" lon="0.11476">
        <ele>1606.9</ele>
        <time>2024-07-30T22:47:57.156Z</time>
      </trkpt>
      <trkpt lat="42.90735" lon="0.11521">
        <ele>1611</ele>
        <time>2024-07-30T22:48:17.817Z</time>
      </trkpt>
      <trkpt lat="42.90722" lon="0.11586">
        <ele>1614.2</ele>
        <time>2024-07-30T22:48:42.882Z</time>
      </trkpt>
      <trkpt lat="42.90717" lon="0.116">
        <ele>1614.5</ele>
        <time>2024-07-30T22:48:47.992Z</time>
      </trkpt>
      <trkpt lat="42.90716" lon="0.11616">
        <ele>1616.1</ele>
        <time>2024-07-30T22:48:55.651Z</time>
      </trkpt>
      <trkpt lat="42.90718" lon="0.11622">
        <ele>1617.4</ele>
        <time>2024-07-30T22:49:00.947Z</time>
      </trkpt>
      <trkpt lat="42.90722" lon="0.11626">
        <ele>1619.1</ele>
        <time>2024-07-30T22:49:08.334Z</time>
      </trkpt>
      <trkpt lat="42.90728" lon="0.11627">
        <ele>1620.3</ele>
        <time>2024-07-30T22:49:13.318Z</time>
      </trkpt>
      <trkpt lat="42.90734" lon="0.11625">
        <ele>1621.1</ele>
        <time>2024-07-30T22:49:17.246Z</time>
      </trkpt>
      <trkpt lat="42.90763" lon="0.1159">
        <ele>1622.6</ele>
        <time>2024-07-30T22:49:35.290Z</time>
      </trkpt>
      <trkpt lat="42.90798" lon="0.11554">
        <ele>1624.8</ele>
        <time>2024-07-30T22:49:56.494Z</time>
      </trkpt>
      <trkpt lat="42.90804" lon="0.11552">
        <ele>1625.5</ele>
        <time>2024-07-30T22:50:00.201Z</time>
      </trkpt>
      <trkpt lat="42.90809" lon="0.11554">
        <ele>1626.5</ele>
        <time>2024-07-30T22:50:04.388Z</time>
      </trkpt>
      <trkpt lat="42.90813" lon="0.11558">
        <ele>1627.6</ele>
        <time>2024-07-30T22:50:08.872Z</time>
      </trkpt>
      <trkpt lat="42.90815" lon="0.11566">
        <ele>1628.8</ele>
        <time>2024-07-30T22:50:13.884Z</time>
      </trkpt>
      <trkpt lat="42.90815" lon="0.11575">
        <ele>1629.8</ele>
        <time>2024-07-30T22:50:18.431Z</time>
      </trkpt>
      <trkpt lat="42.90808" lon="0.11593">
        <ele>1631.2</ele>
        <time>2024-07-30T22:50:26.796Z</time>
      </trkpt>
      <trkpt lat="42.9079" lon="0.11625">
        <ele>1633.9</ele>
        <time>2024-07-30T22:50:43.219Z</time>
      </trkpt>
      <trkpt lat="42.90778" lon="0.11651">
        <ele>1635.7</ele>
        <time>2024-07-30T22:50:55.249Z</time>
      </trkpt>
      <trkpt lat="42.90756" lon="0.11709">
        <ele>1639.5</ele>
        <time>2024-07-30T22:51:20.771Z</time>
      </trkpt>
      <trkpt lat="42.90747" lon="0.11752">
        <ele>1642.5</ele>
        <time>2024-07-30T22:51:38.988Z</time>
      </trkpt>
      <trkpt lat="42.90733" lon="0.11837">
        <ele>1648</ele>
        <time>2024-07-30T22:52:13.825Z</time>
      </trkpt>
      <trkpt lat="42.90718" lon="0.11976">
        <ele>1658.1</ele>
        <time>2024-07-30T22:53:12.375Z</time>
      </trkpt>
      <trkpt lat="42.90709" lon="0.1209">
        <ele>1666.1</ele>
        <time>2024-07-30T22:53:59.679Z</time>
      </trkpt>
      <trkpt lat="42.90707" lon="0.12232">
        <ele>1675.5</ele>
        <time>2024-07-30T22:54:57.291Z</time>
      </trkpt>
      <trkpt lat="42.9071" lon="0.12305">
        <ele>1680.5</ele>
        <time>2024-07-30T22:55:27.258Z</time>
      </trkpt>
      <trkpt lat="42.90706" lon="0.12358">
        <ele>1683.5</ele>
        <time>2024-07-30T22:55:47.897Z</time>
      </trkpt>
      <trkpt lat="42.90704" lon="0.12444">
        <ele>1691</ele>
        <time>2024-07-30T22:56:26.489Z</time>
      </trkpt>
      <trkpt lat="42.90712" lon="0.12581">
        <ele>1700</ele>
        <time>2024-07-30T22:57:22.055Z</time>
      </trkpt>
      <trkpt lat="42.90712" lon="0.12619">
        <ele>1702.4</ele>
        <time>2024-07-30T22:57:37.252Z</time>
      </trkpt>
      <trkpt lat="42.90699" lon="0.12796">
        <ele>1712.8</ele>
        <time>2024-07-30T22:58:46.852Z</time>
      </trkpt>
      <trkpt lat="42.90695" lon="0.12887">
        <ele>1719.1</ele>
        <time>2024-07-30T22:59:24.345Z</time>
      </trkpt>
      <trkpt lat="42.90694" lon="0.1297">
        <ele>1725.6</ele>
        <time>2024-07-30T23:00:00.014Z</time>
      </trkpt>
      <trkpt lat="42.90687" lon="0.13002">
        <ele>1727.8</ele>
        <time>2024-07-30T23:00:13.542Z</time>
      </trkpt>
      <trkpt lat="42.90669" lon="0.13059">
        <ele>1729.3</ele>
        <time>2024-07-30T23:00:34.347Z</time>
      </trkpt>
      <trkpt lat="42.90663" lon="0.13093">
        <ele>1731.3</ele>
        <time>2024-07-30T23:00:47.950Z</time>
      </trkpt>
      <trkpt lat="42.90654" lon="0.13126">
        <ele>1731.8</ele>
        <time>2024-07-30T23:00:59.253Z</time>
      </trkpt>
      <trkpt lat="42.90646" lon="0.13143">
        <ele>1730.9</ele>
        <time>2024-07-30T23:01:04.595Z</time>
      </trkpt>
      <trkpt lat="42.90636" lon="0.13152">
        <ele>1729.8</ele>
        <time>2024-07-30T23:01:08.919Z</time>
      </trkpt>
      <trkpt lat="42.90607" lon="0.13162">
        <ele>1729.1</ele>
        <time>2024-07-30T23:01:20.413Z</time>
      </trkpt>
      <trkpt lat="42.906" lon="0.13163">
        <ele>1729.6</ele>
        <time>2024-07-30T23:01:24.062Z</time>
      </trkpt>
      <trkpt lat="42.9059" lon="0.13162">
        <ele>1730.1</ele>
        <time>2024-07-30T23:01:28.909Z</time>
      </trkpt>
      <trkpt lat="42.9058" lon="0.13156">
        <ele>1730</ele>
        <time>2024-07-30T23:01:33.291Z</time>
      </trkpt>
      <trkpt lat="42.9057" lon="0.13144">
        <ele>1729.7</ele>
        <time>2024-07-30T23:01:38.420Z</time>
      </trkpt>
      <trkpt lat="42.90561" lon="0.131">
        <ele>1732.4</ele>
        <time>2024-07-30T23:01:56.347Z</time>
      </trkpt>
      <trkpt lat="42.90546" lon="0.1306">
        <ele>1737.7</ele>
        <time>2024-07-30T23:02:19.856Z</time>
      </trkpt>
      <trkpt lat="42.90525" lon="0.13025">
        <ele>1740.4</ele>
        <time>2024-07-30T23:02:37.658Z</time>
      </trkpt>
      <trkpt lat="42.90507" lon="0.13014">
        <ele>1742.6</ele>
        <time>2024-07-30T23:02:49.419Z</time>
      </trkpt>
      <trkpt lat="42.90485" lon="0.13007">
        <ele>1745.3</ele>
        <time>2024-07-30T23:03:03.277Z</time>
      </trkpt>
      <trkpt lat="42.90478" lon="0.13003">
        <ele>1745.7</ele>
        <time>2024-07-30T23:03:06.979Z</time>
      </trkpt>
      <trkpt lat="42.90471" lon="0.12996">
        <ele>1746.2</ele>
        <time>2024-07-30T23:03:11.282Z</time>
      </trkpt>
      <trkpt lat="42.90459" lon="0.12977">
        <ele>1748.1</ele>
        <time>2024-07-30T23:03:21.930Z</time>
      </trkpt>
      <trkpt lat="42.90447" lon="0.12945">
        <ele>1749.4</ele>
        <time>2024-07-30T23:03:34.637Z</time>
      </trkpt>
      <trkpt lat="42.90436" lon="0.12902">
        <ele>1754.7</ele>
        <time>2024-07-30T23:03:58.273Z</time>
      </trkpt>
      <trkpt lat="42.90426" lon="0.12842">
        <ele>1755.3</ele>
        <time>2024-07-30T23:04:17.652Z</time>
      </trkpt>
      <trkpt lat="42.90422" lon="0.12758">
        <ele>1756.8</ele>
        <time>2024-07-30T23:04:45.098Z</time>
      </trkpt>
      <trkpt lat="42.90405" lon="0.12706">
        <ele>1760.1</ele>
        <time>2024-07-30T23:05:07.326Z</time>
      </trkpt>
      <trkpt lat="42.90411" lon="0.1267">
        <ele>1762.4</ele>
        <time>2024-07-30T23:05:22.032Z</time>
        <extensions>
          <visugpx:TrkExtension xmlns:visugpx="https://www.visugpx.com/editgpx/">
            <visugpx:node>2</visugpx:node>
            </visugpx:TrkExtension>
        </extensions>
      </trkpt>
      <trkpt lat="42.90413" lon="0.1266">
        <ele>1762.5</ele>
        <time>2024-07-30T23:05:25.295Z</time>
      </trkpt>
      <trkpt lat="42.9041" lon="0.12653">
        <ele>1763.1</ele>
        <time>2024-07-30T23:05:28.709Z</time>
      </trkpt>
      <trkpt lat="42.90404" lon="0.12645">
        <ele>1764.6</ele>
        <time>2024-07-30T23:05:35.118Z</time>
      </trkpt>
      <trkpt lat="42.90393" lon="0.12643">
        <ele>1767.6</ele>
        <time>2024-07-30T23:05:47.345Z</time>
      </trkpt>
      <trkpt lat="42.90386" lon="0.12646">
        <ele>1769.3</ele>
        <time>2024-07-30T23:05:54.247Z</time>
      </trkpt>
      <trkpt lat="42.90382" lon="0.12653">
        <ele>1770</ele>
        <time>2024-07-30T23:05:58.072Z</time>
      </trkpt>
      <trkpt lat="42.90372" lon="0.12686">
        <ele>1771</ele>
        <time>2024-07-30T23:06:10.246Z</time>
      </trkpt>
      <trkpt lat="42.90371" lon="0.127">
        <ele>1771.8</ele>
        <time>2024-07-30T23:06:15.710Z</time>
      </trkpt>
      <trkpt lat="42.90376" lon="0.12728">
        <ele>1772.6</ele>
        <time>2024-07-30T23:06:25.524Z</time>
      </trkpt>
      <trkpt lat="42.90376" lon="0.12736">
        <ele>1772.6</ele>
        <time>2024-07-30T23:06:27.941Z</time>
      </trkpt>
      <trkpt lat="42.90375" lon="0.12742">
        <ele>1773</ele>
        <time>2024-07-30T23:06:30.424Z</time>
      </trkpt>
      <trkpt lat="42.9036" lon="0.12776">
        <ele>1776.9</ele>
        <time>2024-07-30T23:06:49.225Z</time>
      </trkpt>
      <trkpt lat="42.90357" lon="0.12791">
        <ele>1780</ele>
        <time>2024-07-30T23:07:01.870Z</time>
      </trkpt>
      <trkpt lat="42.90357" lon="0.128">
        <ele>1780.8</ele>
        <time>2024-07-30T23:07:05.941Z</time>
      </trkpt>
      <trkpt lat="42.90364" lon="0.12831">
        <ele>1783</ele>
        <time>2024-07-30T23:07:19.202Z</time>
      </trkpt>
      <trkpt lat="42.90376" lon="0.1287">
        <ele>1785</ele>
        <time>2024-07-30T23:07:34.923Z</time>
      </trkpt>
      <trkpt lat="42.90378" lon="0.12883">
        <ele>1785.8</ele>
        <time>2024-07-30T23:07:40.163Z</time>
      </trkpt>
      <trkpt lat="42.90378" lon="0.12911">
        <ele>1788.1</ele>
        <time>2024-07-30T23:07:52.420Z</time>
      </trkpt>
      <trkpt lat="42.90373" lon="0.12944">
        <ele>1789.2</ele>
        <time>2024-07-30T23:08:04.146Z</time>
      </trkpt>
      <trkpt lat="42.90349" lon="0.13017">
        <ele>1794.7</ele>
        <time>2024-07-30T23:08:36.998Z</time>
      </trkpt>
      <trkpt lat="42.90336" lon="0.13067">
        <ele>1800.5</ele>
        <time>2024-07-30T23:09:03.562Z</time>
      </trkpt>
      <trkpt lat="42.90335" lon="0.13082">
        <ele>1801.2</ele>
        <time>2024-07-30T23:09:09.139Z</time>
      </trkpt>
      <trkpt lat="42.90341" lon="0.13117">
        <ele>1800.8</ele>
        <time>2024-07-30T23:09:19.510Z</time>
      </trkpt>
      <trkpt lat="42.90337" lon="0.13135">
        <ele>1800.3</ele>
        <time>2024-07-30T23:09:24.606Z</time>
      </trkpt>
      <trkpt lat="42.90329" lon="0.13149">
        <ele>1799.8</ele>
        <time>2024-07-30T23:09:29.386Z</time>
      </trkpt>
      <trkpt lat="42.90299" lon="0.13183">
        <ele>1799.7</ele>
        <time>2024-07-30T23:09:45.345Z</time>
      </trkpt>
      <trkpt lat="42.90276" lon="0.13218">
        <ele>1804.3</ele>
        <time>2024-07-30T23:10:07.571Z</time>
      </trkpt>
      <trkpt lat="42.90265" lon="0.13225">
        <ele>1807.8</ele>
        <time>2024-07-30T23:10:21.984Z</time>
      </trkpt>
      <trkpt lat="42.90249" lon="0.1323">
        <ele>1814.1</ele>
        <time>2024-07-30T23:10:50.805Z</time>
      </trkpt>
      <trkpt lat="42.90213" lon="0.13236">
        <ele>1818.7</ele>
        <time>2024-07-30T23:11:13.646Z</time>
      </trkpt>
      <trkpt lat="42.90203" lon="0.13239">
        <ele>1819.9</ele>
        <time>2024-07-30T23:11:19.875Z</time>
      </trkpt>
      <trkpt lat="42.90196" lon="0.13246">
        <ele>1820.8</ele>
        <time>2024-07-30T23:11:24.909Z</time>
      </trkpt>
      <trkpt lat="42.90193" lon="0.13258">
        <ele>1822.3</ele>
        <time>2024-07-30T23:11:31.555Z</time>
      </trkpt>
      <trkpt lat="42.90194" lon="0.13272">
        <ele>1823.5</ele>
        <time>2024-07-30T23:11:37.807Z</time>
      </trkpt>
      <trkpt lat="42.90197" lon="0.13281">
        <ele>1824.2</ele>
        <time>2024-07-30T23:11:41.907Z</time>
      </trkpt>
      <trkpt lat="42.90217" lon="0.1333">
        <ele>1828</ele>
        <time>2024-07-30T23:12:04.829Z</time>
      </trkpt>
      <trkpt lat="42.90221" lon="0.13349">
        <ele>1829.1</ele>
        <time>2024-07-30T23:12:12.464Z</time>
      </trkpt>
      <trkpt lat="42.90223" lon="0.13375">
        <ele>1830.9</ele>
        <time>2024-07-30T23:12:23.204Z</time>
      </trkpt>
      <trkpt lat="42.90227" lon="0.13389">
        <ele>1831.7</ele>
        <time>2024-07-30T23:12:28.943Z</time>
      </trkpt>
      <trkpt lat="42.90233" lon="0.13398">
        <ele>1832.7</ele>
        <time>2024-07-30T23:12:34.271Z</time>
      </trkpt>
      <trkpt lat="42.90238" lon="0.13402">
        <ele>1833</ele>
        <time>2024-07-30T23:12:37.090Z</time>
      </trkpt>
      <trkpt lat="42.90259" lon="0.13414">
        <ele>1834</ele>
        <time>2024-07-30T23:12:47.882Z</time>
      </trkpt>
      <trkpt lat="42.90269" lon="0.13431">
        <ele>1836</ele>
        <time>2024-07-30T23:12:57.882Z</time>
      </trkpt>
      <trkpt lat="42.90276" lon="0.13451">
        <ele>1838</ele>
        <time>2024-07-30T23:13:07.974Z</time>
      </trkpt>
      <trkpt lat="42.90279" lon="0.13468">
        <ele>1839.3</ele>
        <time>2024-07-30T23:13:15.347Z</time>
      </trkpt>
      <trkpt lat="42.90272" lon="0.13508">
        <ele>1843.5</ele>
        <time>2024-07-30T23:13:35.207Z</time>
      </trkpt>
      <trkpt lat="42.90273" lon="0.13525">
        <ele>1844.5</ele>
        <time>2024-07-30T23:13:41.886Z</time>
      </trkpt>
      <trkpt lat="42.90284" lon="0.1357">
        <ele>1847.2</ele>
        <time>2024-07-30T23:14:00.315Z</time>
      </trkpt>
      <trkpt lat="42.90287" lon="0.13597">
        <ele>1850.5</ele>
        <time>2024-07-30T23:14:14.815Z</time>
      </trkpt>
      <trkpt lat="42.90292" lon="0.13607">
        <ele>1851.7</ele>
        <time>2024-07-30T23:14:20.575Z</time>
      </trkpt>
      <trkpt lat="42.90297" lon="0.1361">
        <ele>1852.1</ele>
        <time>2024-07-30T23:14:23.428Z</time>
      </trkpt>
      <trkpt lat="42.90313" lon="0.13612">
        <ele>1852.2</ele>
        <time>2024-07-30T23:14:30.185Z</time>
      </trkpt>
      <trkpt lat="42.90329" lon="0.13619">
        <ele>1853.2</ele>
        <time>2024-07-30T23:14:38.569Z</time>
      </trkpt>
      <trkpt lat="42.90348" lon="0.13636">
        <ele>1854.6</ele>
        <time>2024-07-30T23:14:49.983Z</time>
      </trkpt>
      <trkpt lat="42.90357" lon="0.13651">
        <ele>1856.1</ele>
        <time>2024-07-30T23:14:58.278Z</time>
      </trkpt>
      <trkpt lat="42.90364" lon="0.13676">
        <ele>1859</ele>
        <time>2024-07-30T23:15:11.613Z</time>
      </trkpt>
      <trkpt lat="42.90368" lon="0.13684">
        <ele>1860</ele>
        <time>2024-07-30T23:15:16.316Z</time>
      </trkpt>
      <trkpt lat="42.90373" lon="0.1369">
        <ele>1860.7</ele>
        <time>2024-07-30T23:15:20.198Z</time>
      </trkpt>
      <trkpt lat="42.9038" lon="0.13695">
        <ele>1861.4</ele>
        <time>2024-07-30T23:15:24.547Z</time>
      </trkpt>
      <trkpt lat="42.90409" lon="0.13708">
        <ele>1864.1</ele>
        <time>2024-07-30T23:15:41.340Z</time>
      </trkpt>
      <trkpt lat="42.90432" lon="0.13714">
        <ele>1866.5</ele>
        <time>2024-07-30T23:15:54.866Z</time>
      </trkpt>
      <trkpt lat="42.90473" lon="0.1371">
        <ele>1869.4</ele>
        <time>2024-07-30T23:16:16.146Z</time>
      </trkpt>
      <trkpt lat="42.90486" lon="0.13713">
        <ele>1869.4</ele>
        <time>2024-07-30T23:16:21.585Z</time>
      </trkpt>
      <trkpt lat="42.90492" lon="0.13717">
        <ele>1870.1</ele>
        <time>2024-07-30T23:16:25.474Z</time>
      </trkpt>
      <trkpt lat="42.90498" lon="0.13722">
        <ele>1871.1</ele>
        <time>2024-07-30T23:16:30.156Z</time>
      </trkpt>
      <trkpt lat="42.90516" lon="0.13744">
        <ele>1872.1</ele>
        <time>2024-07-30T23:16:41.516Z</time>
      </trkpt>
      <trkpt lat="42.90538" lon="0.13788">
        <ele>1877.8</ele>
        <time>2024-07-30T23:17:07.877Z</time>
      </trkpt>
      <trkpt lat="42.90544" lon="0.13797">
        <ele>1879.6</ele>
        <time>2024-07-30T23:17:15.326Z</time>
      </trkpt>
      <trkpt lat="42.90558" lon="0.13812">
        <ele>1883</ele>
        <time>2024-07-30T23:17:29.580Z</time>
      </trkpt>
      <trkpt lat="42.90578" lon="0.13828">
        <ele>1885.4</ele>
        <time>2024-07-30T23:17:43.019Z</time>
      </trkpt>
      <trkpt lat="42.90604" lon="0.13841">
        <ele>1885.5</ele>
        <time>2024-07-30T23:17:54.570Z</time>
      </trkpt>
      <trkpt lat="42.9063" lon="0.13866">
        <ele>1889.8</ele>
        <time>2024-07-30T23:18:15.216Z</time>
      </trkpt>
      <trkpt lat="42.90642" lon="0.13871">
        <ele>1891.6</ele>
        <time>2024-07-30T23:18:23.611Z</time>
      </trkpt>
      <trkpt lat="42.90651" lon="0.13872">
        <ele>1893</ele>
        <time>2024-07-30T23:18:29.917Z</time>
      </trkpt>
      <trkpt lat="42.90667" lon="0.13869">
        <ele>1893.9</ele>
        <time>2024-07-30T23:18:37.875Z</time>
      </trkpt>
      <trkpt lat="42.90695" lon="0.13858">
        <ele>1895.9</ele>
        <time>2024-07-30T23:18:52.862Z</time>
      </trkpt>
      <trkpt lat="42.90712" lon="0.13857">
        <ele>1896.9</ele>
        <time>2024-07-30T23:19:01.331Z</time>
      </trkpt>
      <trkpt lat="42.90729" lon="0.1386">
        <ele>1899.6</ele>
        <time>2024-07-30T23:19:13.414Z</time>
      </trkpt>
      <trkpt lat="42.90741" lon="0.13857">
        <ele>1900.6</ele>
        <time>2024-07-30T23:19:19.979Z</time>
      </trkpt>
      <trkpt lat="42.90759" lon="0.13842">
        <ele>1901.5</ele>
        <time>2024-07-30T23:19:29.935Z</time>
      </trkpt>
      <trkpt lat="42.90776" lon="0.13819">
        <ele>1902.2</ele>
        <time>2024-07-30T23:19:40.757Z</time>
      </trkpt>
      <trkpt lat="42.90788" lon="0.13808">
        <ele>1904.3</ele>
        <time>2024-07-30T23:19:50.493Z</time>
      </trkpt>
      <trkpt lat="42.90829" lon="0.13783">
        <ele>1909.6</ele>
        <time>2024-07-30T23:20:17.895Z</time>
      </trkpt>
      <trkpt lat="42.90841" lon="0.1378">
        <ele>1910.8</ele>
        <time>2024-07-30T23:20:24.841Z</time>
      </trkpt>
      <trkpt lat="42.90887" lon="0.13781">
        <ele>1915.3</ele>
        <time>2024-07-30T23:20:50.985Z</time>
      </trkpt>
      <trkpt lat="42.90924" lon="0.13794">
        <ele>1919</ele>
        <time>2024-07-30T23:21:12.624Z</time>
      </trkpt>
      <trkpt lat="42.90945" lon="0.13799">
        <ele>1921.2</ele>
        <time>2024-07-30T23:21:24.968Z</time>
      </trkpt>
      <trkpt lat="42.90997" lon="0.13803">
        <ele>1924.9</ele>
        <time>2024-07-30T23:21:51.975Z</time>
      </trkpt>
      <trkpt lat="42.91016" lon="0.13806">
        <ele>1927.3</ele>
        <time>2024-07-30T23:22:03.962Z</time>
      </trkpt>
      <trkpt lat="42.91044" lon="0.13804">
        <ele>1928.6</ele>
        <time>2024-07-30T23:22:17.360Z</time>
      </trkpt>
      <trkpt lat="42.91058" lon="0.13806">
        <ele>1929.4</ele>
        <time>2024-07-30T23:22:24.321Z</time>
      </trkpt>
      <trkpt lat="42.91065" lon="0.13811">
        <ele>1929</ele>
        <time>2024-07-30T23:22:27.173Z</time>
      </trkpt>
      <trkpt lat="42.9107" lon="0.13818">
        <ele>1930</ele>
        <time>2024-07-30T23:22:31.898Z</time>
      </trkpt>
      <trkpt lat="42.91087" lon="0.1385">
        <ele>1937.3</ele>
        <time>2024-07-30T23:23:01.494Z</time>
      </trkpt>
      <trkpt lat="42.91092" lon="0.13856">
        <ele>1939.2</ele>
        <time>2024-07-30T23:23:09.303Z</time>
      </trkpt>
      <trkpt lat="42.91097" lon="0.13858">
        <ele>1939.4</ele>
        <time>2024-07-30T23:23:11.729Z</time>
      </trkpt>
      <trkpt lat="42.91101" lon="0.13857">
        <ele>1938.7</ele>
        <time>2024-07-30T23:23:13.197Z</time>
      </trkpt>
      <trkpt lat="42.91109" lon="0.13849">
        <ele>1935.2</ele>
        <time>2024-07-30T23:23:16.776Z</time>
      </trkpt>
      <trkpt lat="42.91122" lon="0.1383">
        <ele>1935</ele>
        <time>2024-07-30T23:23:24.384Z</time>
      </trkpt>
      <trkpt lat="42.91144" lon="0.13803">
        <ele>1936.3</ele>
        <time>2024-07-30T23:23:38.408Z</time>
      </trkpt>
      <trkpt lat="42.91157" lon="0.1379">
        <ele>1936.5</ele>
        <time>2024-07-30T23:23:45.317Z</time>
      </trkpt>
      <trkpt lat="42.91164" lon="0.13787">
        <ele>1938</ele>
        <time>2024-07-30T23:23:51.509Z</time>
      </trkpt>
      <trkpt lat="42.91182" lon="0.13784">
        <ele>1938.9</ele>
        <time>2024-07-30T23:24:00.267Z</time>
      </trkpt>
      <trkpt lat="42.91201" lon="0.13787">
        <ele>1941.8</ele>
        <time>2024-07-30T23:24:13.456Z</time>
      </trkpt>
      <trkpt lat="42.91221" lon="0.13785">
        <ele>1942.3</ele>
        <time>2024-07-30T23:24:22.400Z</time>
      </trkpt>
      <trkpt lat="42.91242" lon="0.13775">
        <ele>1943</ele>
        <time>2024-07-30T23:24:32.528Z</time>
      </trkpt>
      <trkpt lat="42.91251" lon="0.13768">
        <ele>1942.9</ele>
        <time>2024-07-30T23:24:36.677Z</time>
      </trkpt>
      <trkpt lat="42.91258" lon="0.13762">
        <ele>1943.5</ele>
        <time>2024-07-30T23:24:40.985Z</time>
      </trkpt>
      <trkpt lat="42.9127" lon="0.13744">
        <ele>1942.3</ele>
        <time>2024-07-30T23:24:47.420Z</time>
      </trkpt>
      <trkpt lat="42.91284" lon="0.13712">
        <ele>1939.6</ele>
        <time>2024-07-30T23:24:57.275Z</time>
      </trkpt>
      <trkpt lat="42.91294" lon="0.13694">
        <ele>1938.5</ele>
        <time>2024-07-30T23:25:03.248Z</time>
      </trkpt>
      <trkpt lat="42.91306" lon="0.13682">
        <ele>1940.1</ele>
        <time>2024-07-30T23:25:11.994Z</time>
      </trkpt>
      <trkpt lat="42.91315" lon="0.13678">
        <ele>1940.1</ele>
        <time>2024-07-30T23:25:15.899Z</time>
      </trkpt>
      <trkpt lat="42.91327" lon="0.13678">
        <ele>1940.4</ele>
        <time>2024-07-30T23:25:21.252Z</time>
      </trkpt>
      <trkpt lat="42.91332" lon="0.13681">
        <ele>1941</ele>
        <time>2024-07-30T23:25:24.489Z</time>
      </trkpt>
      <trkpt lat="42.91335" lon="0.13685">
        <ele>1941.5</ele>
        <time>2024-07-30T23:25:27.059Z</time>
      </trkpt>
      <trkpt lat="42.91339" lon="0.13695">
        <ele>1942.7</ele>
        <time>2024-07-30T23:25:32.650Z</time>
      </trkpt>
      <trkpt lat="42.9134" lon="0.13703">
        <ele>1944.5</ele>
        <time>2024-07-30T23:25:40.147Z</time>
      </trkpt>
      <trkpt lat="42.91337" lon="0.13714">
        <ele>1947.1</ele>
        <time>2024-07-30T23:25:50.974Z</time>
      </trkpt>
      <trkpt lat="42.91328" lon="0.13723">
        <ele>1949</ele>
        <time>2024-07-30T23:25:59.225Z</time>
      </trkpt>
      <trkpt lat="42.91303" lon="0.13737">
        <ele>1952.5</ele>
        <time>2024-07-30T23:26:16.409Z</time>
      </trkpt>
      <trkpt lat="42.91297" lon="0.13742">
        <ele>1952.3</ele>
        <time>2024-07-30T23:26:19.070Z</time>
      </trkpt>
      <trkpt lat="42.9129" lon="0.13751">
        <ele>1952.7</ele>
        <time>2024-07-30T23:26:23.594Z</time>
      </trkpt>
      <trkpt lat="42.91262" lon="0.13802">
        <ele>1960.5</ele>
        <time>2024-07-30T23:26:57.705Z</time>
      </trkpt>
      <trkpt lat="42.91248" lon="0.13817">
        <ele>1962.5</ele>
        <time>2024-07-30T23:27:08.349Z</time>
      </trkpt>
      <trkpt lat="42.91238" lon="0.13824">
        <ele>1963.7</ele>
        <time>2024-07-30T23:27:14.938Z</time>
      </trkpt>
      <trkpt lat="42.91218" lon="0.13834">
        <ele>1965.2</ele>
        <time>2024-07-30T23:27:25.960Z</time>
      </trkpt>
      <trkpt lat="42.91191" lon="0.13841">
        <ele>1966.9</ele>
        <time>2024-07-30T23:27:39.780Z</time>
      </trkpt>
      <trkpt lat="42.91175" lon="0.1385">
        <ele>1967.5</ele>
        <time>2024-07-30T23:27:47.741Z</time>
      </trkpt>
      <trkpt lat="42.91165" lon="0.13864">
        <ele>1970.1</ele>
        <time>2024-07-30T23:27:58.799Z</time>
      </trkpt>
      <trkpt lat="42.91146" lon="0.13901">
        <ele>1973.2</ele>
        <time>2024-07-30T23:28:17.338Z</time>
      </trkpt>
      <trkpt lat="42.91132" lon="0.13936">
        <ele>1979.1</ele>
        <time>2024-07-30T23:28:41.753Z</time>
      </trkpt>
      <trkpt lat="42.91124" lon="0.13947">
        <ele>1980.3</ele>
        <time>2024-07-30T23:28:48.385Z</time>
      </trkpt>
      <trkpt lat="42.91119" lon="0.1395">
        <ele>1980.1</ele>
        <time>2024-07-30T23:28:50.403Z</time>
      </trkpt>
      <trkpt lat="42.91113" lon="0.13951">
        <ele>1978.6</ele>
        <time>2024-07-30T23:28:52.585Z</time>
      </trkpt>
      <trkpt lat="42.91095" lon="0.1395">
        <ele>1980.9</ele>
        <time>2024-07-30T23:29:03.965Z</time>
      </trkpt>
      <trkpt lat="42.9105" lon="0.13938">
        <ele>1984.7</ele>
        <time>2024-07-30T23:29:28.714Z</time>
      </trkpt>
      <trkpt lat="42.9102" lon="0.13933">
        <ele>1987.4</ele>
        <time>2024-07-30T23:29:45.392Z</time>
      </trkpt>
      <trkpt lat="42.90986" lon="0.13937">
        <ele>1992.5</ele>
        <time>2024-07-30T23:30:08.736Z</time>
      </trkpt>
      <trkpt lat="42.90942" lon="0.13933">
        <ele>1995.1</ele>
        <time>2024-07-30T23:30:30.698Z</time>
      </trkpt>
      <trkpt lat="42.90921" lon="0.13937">
        <ele>1999</ele>
        <time>2024-07-30T23:30:47.220Z</time>
      </trkpt>
      <trkpt lat="42.90903" lon="0.13945">
        <ele>2001.4</ele>
        <time>2024-07-30T23:30:59.140Z</time>
      </trkpt>
      <trkpt lat="42.90879" lon="0.13964">
        <ele>2004.6</ele>
        <time>2024-07-30T23:31:15.908Z</time>
      </trkpt>
      <trkpt lat="42.90848" lon="0.14004">
        <ele>2009.3</ele>
        <time>2024-07-30T23:31:41.222Z</time>
      </trkpt>
      <trkpt lat="42.90812" lon="0.14034">
        <ele>2012.4</ele>
        <time>2024-07-30T23:32:03.275Z</time>
      </trkpt>
      <trkpt lat="42.90795" lon="0.1406">
        <ele>2016</ele>
        <time>2024-07-30T23:32:20.203Z</time>
      </trkpt>
      <trkpt lat="42.90763" lon="0.141">
        <ele>2020.5</ele>
        <time>2024-07-30T23:32:45.372Z</time>
      </trkpt>
      <trkpt lat="42.90746" lon="0.14128">
        <ele>2022.3</ele>
        <time>2024-07-30T23:32:59.025Z</time>
      </trkpt>
      <trkpt lat="42.90737" lon="0.14152">
        <ele>2024.3</ele>
        <time>2024-07-30T23:33:10.384Z</time>
      </trkpt>
      <trkpt lat="42.90724" lon="0.14202">
        <ele>2027.1</ele>
        <time>2024-07-30T23:33:30.605Z</time>
      </trkpt>
      <trkpt lat="42.90719" lon="0.14236">
        <ele>2028</ele>
        <time>2024-07-30T23:33:42.320Z</time>
      </trkpt>
      <trkpt lat="42.90719" lon="0.14247">
        <ele>2028.7</ele>
        <time>2024-07-30T23:33:46.729Z</time>
      </trkpt>
      <trkpt lat="42.90722" lon="0.14263">
        <ele>2029.9</ele>
        <time>2024-07-30T23:33:53.636Z</time>
      </trkpt>
      <trkpt lat="42.90739" lon="0.14303">
        <ele>2035.2</ele>
        <time>2024-07-30T23:34:17.420Z</time>
      </trkpt>
      <trkpt lat="42.90746" lon="0.14328">
        <ele>2037.9</ele>
        <time>2024-07-30T23:34:30.264Z</time>
      </trkpt>
      <trkpt lat="42.90749" lon="0.14359">
        <ele>2041.4</ele>
        <time>2024-07-30T23:34:46.128Z</time>
      </trkpt>
      <trkpt lat="42.90748" lon="0.14369">
        <ele>2042.7</ele>
        <time>2024-07-30T23:34:51.712Z</time>
      </trkpt>
      <trkpt lat="42.90743" lon="0.14384">
        <ele>2044.4</ele>
        <time>2024-07-30T23:34:59.712Z</time>
      </trkpt>
      <trkpt lat="42.90739" lon="0.1439">
        <ele>2045</ele>
        <time>2024-07-30T23:35:03.126Z</time>
      </trkpt>
      <trkpt lat="42.90722" lon="0.14402">
        <ele>2046.1</ele>
        <time>2024-07-30T23:35:12.611Z</time>
      </trkpt>
      <trkpt lat="42.90698" lon="0.14424">
        <ele>2051</ele>
        <time>2024-07-30T23:35:33.928Z</time>
      </trkpt>
      <trkpt lat="42.9068" lon="0.14435">
        <ele>2053.5</ele>
        <time>2024-07-30T23:35:46.345Z</time>
      </trkpt>
      <trkpt lat="42.90643" lon="0.14454">
        <ele>2055.7</ele>
        <time>2024-07-30T23:36:05.819Z</time>
      </trkpt>
      <trkpt lat="42.90633" lon="0.14463">
        <ele>2056.1</ele>
        <time>2024-07-30T23:36:11.307Z</time>
      </trkpt>
      <trkpt lat="42.90623" lon="0.14479">
        <ele>2056.9</ele>
        <time>2024-07-30T23:36:18.804Z</time>
      </trkpt>
      <trkpt lat="42.90608" lon="0.14516">
        <ele>2058.7</ele>
        <time>2024-07-30T23:36:34.188Z</time>
      </trkpt>
      <trkpt lat="42.90593" lon="0.14571">
        <ele>2065.8</ele>
        <time>2024-07-30T23:37:05.372Z</time>
      </trkpt>
      <trkpt lat="42.9058" lon="0.146">
        <ele>2070.9</ele>
        <time>2024-07-30T23:37:26.418Z</time>
      </trkpt>
      <trkpt lat="42.90565" lon="0.14624">
        <ele>2074.7</ele>
        <time>2024-07-30T23:37:43.136Z</time>
      </trkpt>
      <trkpt lat="42.90552" lon="0.14638">
        <ele>2076</ele>
        <time>2024-07-30T23:37:51.942Z</time>
      </trkpt>
      <trkpt lat="42.90545" lon="0.14642">
        <ele>2076</ele>
        <time>2024-07-30T23:37:55.072Z</time>
      </trkpt>
      <trkpt lat="42.90525" lon="0.14649">
        <ele>2074.1</ele>
        <time>2024-07-30T23:38:02.525Z</time>
      </trkpt>
      <trkpt lat="42.9052" lon="0.14653">
        <ele>2074.4</ele>
        <time>2024-07-30T23:38:05.344Z</time>
      </trkpt>
      <trkpt lat="42.90517" lon="0.14662">
        <ele>2076.5</ele>
        <time>2024-07-30T23:38:14.001Z</time>
      </trkpt>
      <trkpt lat="42.90518" lon="0.14666">
        <ele>2077.8</ele>
        <time>2024-07-30T23:38:20.206Z</time>
      </trkpt>
      <trkpt lat="42.90521" lon="0.14669">
        <ele>2079.2</ele>
        <time>2024-07-30T23:38:26.551Z</time>
      </trkpt>
      <trkpt lat="42.90529" lon="0.1467">
        <ele>2080.6</ele>
        <time>2024-07-30T23:38:32.583Z</time>
      </trkpt>
      <trkpt lat="42.90553" lon="0.1466">
        <ele>2083.2</ele>
        <time>2024-07-30T23:38:47.135Z</time>
      </trkpt>
      <trkpt lat="42.90573" lon="0.14648">
        <ele>2086.7</ele>
        <time>2024-07-30T23:39:02.690Z</time>
      </trkpt>
      <trkpt lat="42.90601" lon="0.14613">
        <ele>2088.7</ele>
        <time>2024-07-30T23:39:21.210Z</time>
      </trkpt>
      <trkpt lat="42.90615" lon="0.14598">
        <ele>2090.4</ele>
        <time>2024-07-30T23:39:31.243Z</time>
      </trkpt>
      <trkpt lat="42.90621" lon="0.14592">
        <ele>2090.7</ele>
        <time>2024-07-30T23:39:34.728Z</time>
      </trkpt>
      <trkpt lat="42.90655" lon="0.14567">
        <ele>2097.2</ele>
        <time>2024-07-30T23:40:03.078Z</time>
      </trkpt>
      <trkpt lat="42.90666" lon="0.14555">
        <ele>2098.5</ele>
        <time>2024-07-30T23:40:10.929Z</time>
      </trkpt>
      <trkpt lat="42.90682" lon="0.14531">
        <ele>2098.8</ele>
        <time>2024-07-30T23:40:21.127Z</time>
      </trkpt>
      <trkpt lat="42.90687" lon="0.14526">
        <ele>2098.9</ele>
        <time>2024-07-30T23:40:23.815Z</time>
      </trkpt>
      <trkpt lat="42.90699" lon="0.1452">
        <ele>2101</ele>
        <time>2024-07-30T23:40:33.056Z</time>
      </trkpt>
      <trkpt lat="42.90721" lon="0.14515">
        <ele>2104.5</ele>
        <time>2024-07-30T23:40:48.743Z</time>
      </trkpt>
      <trkpt lat="42.90746" lon="0.14513">
        <ele>2108.4</ele>
        <time>2024-07-30T23:41:06.278Z</time>
      </trkpt>
      <trkpt lat="42.90758" lon="0.14515">
        <ele>2110.2</ele>
        <time>2024-07-30T23:41:14.531Z</time>
      </trkpt>
      <trkpt lat="42.90772" lon="0.1452">
        <ele>2112.7</ele>
        <time>2024-07-30T23:41:25.335Z</time>
      </trkpt>
      <trkpt lat="42.90783" lon="0.14521">
        <ele>2113.7</ele>
        <time>2024-07-30T23:41:31.447Z</time>
      </trkpt>
      <trkpt lat="42.90808" lon="0.14513">
        <ele>2114</ele>
        <time>2024-07-30T23:41:42.431Z</time>
      </trkpt>
      <trkpt lat="42.90819" lon="0.14512">
        <ele>2114.5</ele>
        <time>2024-07-30T23:41:47.682Z</time>
      </trkpt>
      <trkpt lat="42.90827" lon="0.14516">
        <ele>2115.2</ele>
        <time>2024-07-30T23:41:52.269Z</time>
      </trkpt>
      <trkpt lat="42.90837" lon="0.14527">
        <ele>2116.1</ele>
        <time>2024-07-30T23:41:58.907Z</time>
      </trkpt>
      <trkpt lat="42.9085" lon="0.14552">
        <ele>2117.9</ele>
        <time>2024-07-30T23:42:10.916Z</time>
        <extensions>
          <visugpx:TrkExtension xmlns:visugpx="https://www.visugpx.com/editgpx/">
            <visugpx:node>3</visugpx:node>
            </visugpx:TrkExtension>
        </extensions>
      </trkpt>
    </trkseg>
  </trk>
</gpx>